EZY49AY EGPF-LTAI

Flight info

Callsign EZY49AY
Flight time N/A
Altitude 35000
Route NORBO Y96 HAVEN DCT ERKIT N110 DOLAS DCT NAVPI DCT TIVUN DCT ESAMA DCT OSBIT DCT BARSU DCT DEXIT DCT STEIN DCT OLATI DCT BABIT DCT KOTUS DCT OBAGI/N0448F370 DCT NISVA DCT VIT DCT RODIP UN131 PIBOM DCT BELGI UN131 KULAR UT39 NESIL
Aircraft A320/M-SDE3FGHIRWY/LB1

Departure

Time 2026-05-06 10:44
Airport Glasgow Airport (EGPF)

Arrival

Time N/A
Airport Antalya International Airport (LTAI)
Time Latitude Longitude Altitude Speed Heading
2026-05-06 09:59 55.86565 -4.43710 33 ft 0 kts 253°
2026-05-06 10:35 55.86565 -4.43709 33 ft 1 kts 253°
2026-05-06 10:36 55.86572 -4.43666 31 ft 4 kts 254°
2026-05-06 10:36 55.86580 -4.43620 33 ft 4 kts 258°
2026-05-06 10:36 55.86582 -4.43573 33 ft 4 kts 283°
2026-05-06 10:36 55.86571 -4.43536 33 ft 3 kts 336°
2026-05-06 10:37 55.86566 -4.43533 33 ft 0 kts 343°
2026-05-06 10:39 55.86596 -4.43548 33 ft 10 kts 343°
2026-05-06 10:40 55.86655 -4.43578 33 ft 8 kts 343°
2026-05-06 10:40 55.86722 -4.43623 33 ft 10 kts 322°
2026-05-06 10:40 55.86724 -4.43746 33 ft 12 kts 245°
2026-05-06 10:40 55.86674 -4.43852 33 ft 10 kts 226°
2026-05-06 10:41 55.86607 -4.43976 32 ft 15 kts 226°
2026-05-06 10:41 55.86539 -4.44101 32 ft 13 kts 226°
2026-05-06 10:41 55.86481 -4.44208 31 ft 11 kts 226°
2026-05-06 10:41 55.86433 -4.44298 33 ft 9 kts 227°
2026-05-06 10:42 55.86389 -4.44382 32 ft 12 kts 227°
2026-05-06 10:42 55.86352 -4.44453 31 ft 12 kts 227°
2026-05-06 10:42 55.86288 -4.44580 32 ft 13 kts 227°
2026-05-06 10:42 55.86251 -4.44694 33 ft 10 kts 279°
2026-05-06 10:43 55.86312 -4.44822 32 ft 17 kts 317°
2026-05-06 10:43 55.86407 -4.44797 32 ft 15 kts 45°
2026-05-06 10:43 55.86512 -4.44597 38 ft 48 kts 47°
2026-05-06 10:44 55.87583 -4.42580 46 ft 163 kts 46°
2026-05-06 10:44 55.88385 -4.41097 637 ft 163 kts 47°
2026-05-06 10:44 55.89208 -4.39581 1160 ft 174 kts 48°
2026-05-06 10:44 55.90100 -4.37913 1424 ft 198 kts 48°
2026-05-06 10:45 55.91133 -4.35976 1770 ft 220 kts 47°
2026-05-06 10:45 55.92223 -4.33936 2138 ft 242 kts 47°
2026-05-06 10:45 55.93573 -4.32036 2766 ft 254 kts 22°
2026-05-06 10:45 55.95348 -4.31650 3569 ft 260 kts 351°
2026-05-06 10:46 55.97075 -4.32958 4379 ft 264 kts 320°
2026-05-06 10:46 55.98166 -4.35529 5146 ft 267 kts 291°
2026-05-06 10:46 55.98414 -4.38817 5790 ft 272 kts 262°
2026-05-06 10:46 55.97712 -4.42219 5963 ft 270 kts 243°
2026-05-06 10:47 55.96921 -4.45094 5976 ft 269 kts 243°
2026-05-06 10:47 55.96106 -4.48092 5980 ft 268 kts 244°
2026-05-06 10:47 55.95170 -4.50962 5978 ft 268 kts 230°
2026-05-06 10:47 55.93891 -4.53339 5979 ft 268 kts 225°
2026-05-06 10:48 55.92547 -4.55755 5980 ft 268 kts 225°
2026-05-06 10:48 55.91193 -4.58189 5980 ft 268 kts 225°
2026-05-06 10:48 55.89877 -4.60559 5979 ft 268 kts 225°
2026-05-06 10:48 55.88552 -4.62949 5981 ft 268 kts 225°
2026-05-06 10:49 55.87228 -4.65335 5978 ft 268 kts 225°
2026-05-06 10:49 55.85821 -4.67547 5978 ft 267 kts 212°
2026-05-06 10:49 55.84249 -4.69299 5982 ft 268 kts 211°
2026-05-06 10:49 55.82641 -4.71091 5979 ft 268 kts 212°
2026-05-06 10:50 55.81032 -4.72885 5981 ft 268 kts 212°
2026-05-06 10:50 55.79917 -4.73973 6202 ft 271 kts 202°
2026-05-06 10:50 55.78076 -4.74894 7057 ft 272 kts 188°
2026-05-06 10:50 55.76130 -4.75098 7848 ft 274 kts 182°
2026-05-06 10:51 55.74222 -4.75222 8580 ft 277 kts 182°
2026-05-06 10:51 55.72220 -4.75357 9326 ft 281 kts 182°
2026-05-06 10:51 55.70248 -4.75493 10038 ft 285 kts 183°
2026-05-06 10:51 55.68211 -4.75635 10413 ft 303 kts 183°
2026-05-06 10:52 55.66035 -4.75727 10583 ft 326 kts 178°
2026-05-06 10:52 55.63676 -4.74828 10722 ft 351 kts 159°
2026-05-06 10:52 55.61605 -4.72638 10986 ft 365 kts 140°
2026-05-06 10:52 55.59891 -4.69091 11496 ft 373 kts 121°
2026-05-06 10:53 55.58937 -4.64939 12044 ft 379 kts 102°
2026-05-06 10:53 55.58569 -4.60263 12620 ft 383 kts 96°
2026-05-06 10:53 55.58268 -4.55568 13225 ft 386 kts 96°
2026-05-06 10:53 55.57969 -4.50837 13782 ft 390 kts 96°
2026-05-06 10:54 55.57666 -4.46065 14326 ft 393 kts 96°
2026-05-06 10:54 55.57352 -4.41210 14851 ft 397 kts 96°
2026-05-06 10:54 55.57028 -4.36314 15369 ft 401 kts 97°
2026-05-06 10:54 55.56698 -4.31397 15864 ft 405 kts 97°
2026-05-06 10:55 55.56362 -4.26435 16351 ft 409 kts 97°
2026-05-06 10:55 55.56026 -4.21436 16809 ft 412 kts 97°
2026-05-06 10:55 55.55688 -4.16374 17248 ft 416 kts 97°
2026-05-06 10:55 55.55346 -4.11283 17690 ft 419 kts 97°
2026-05-06 10:56 55.54994 -4.06146 18128 ft 423 kts 97°
2026-05-06 10:56 55.54638 -4.00977 18552 ft 426 kts 97°
2026-05-06 10:56 55.54273 -3.95746 18984 ft 429 kts 97°
2026-05-06 10:56 55.53905 -3.90479 19394 ft 432 kts 97°
2026-05-06 10:57 55.53535 -3.85197 19788 ft 435 kts 97°
2026-05-06 10:57 55.53162 -3.79937 20175 ft 438 kts 97°
2026-05-06 10:57 55.52780 -3.74585 20572 ft 441 kts 98°
2026-05-06 10:57 55.52394 -3.69203 20947 ft 444 kts 98°
2026-05-06 10:58 55.52007 -3.63788 21321 ft 446 kts 98°
2026-05-06 10:58 55.51616 -3.58343 21683 ft 449 kts 98°
2026-05-06 10:58 55.51217 -3.52857 22043 ft 452 kts 98°
2026-05-06 10:58 55.50809 -3.47347 22386 ft 454 kts 98°
2026-05-06 10:59 55.50394 -3.41815 22724 ft 456 kts 98°
2026-05-06 10:59 55.49975 -3.36245 23055 ft 459 kts 98°
2026-05-06 10:59 55.49512 -3.30660 23360 ft 461 kts 100°
2026-05-06 10:59 55.48962 -3.25078 23668 ft 464 kts 101°
2026-05-06 11:00 55.48348 -3.19489 24001 ft 465 kts 102°
2026-05-06 11:00 55.47705 -3.13875 24309 ft 467 kts 102°
2026-05-06 11:00 55.46951 -3.08300 24604 ft 468 kts 109°
2026-05-06 11:00 55.45757 -3.02963 24894 ft 468 kts 118°
2026-05-06 11:01 55.44134 -2.97989 25180 ft 467 kts 127°
2026-05-06 11:01 55.42126 -2.93510 25466 ft 466 kts 135°
2026-05-06 11:01 55.39792 -2.89571 25741 ft 465 kts 141°
2026-05-06 11:01 55.37383 -2.85749 26000 ft 467 kts 141°
2026-05-06 11:02 55.34965 -2.81934 26250 ft 469 kts 141°
2026-05-06 11:02 55.32532 -2.78113 26506 ft 470 kts 141°
2026-05-06 11:02 55.30086 -2.74284 26761 ft 471 kts 141°
2026-05-06 11:02 55.27634 -2.70451 27019 ft 473 kts 141°
2026-05-06 11:03 55.25174 -2.66607 27266 ft 475 kts 141°
2026-05-06 11:03 55.22707 -2.62751 27531 ft 475 kts 141°
2026-05-06 11:03 55.20278 -2.58951 27865 ft 474 kts 141°
2026-05-06 11:03 55.17825 -2.55110 28200 ft 473 kts 141°
2026-05-06 11:04 55.15373 -2.51280 28532 ft 471 kts 141°
2026-05-06 11:04 55.12929 -2.47477 28853 ft 470 kts 141°
2026-05-06 11:04 55.10481 -2.43677 29161 ft 470 kts 141°
2026-05-06 11:04 55.08035 -2.39892 29449 ft 469 kts 141°
2026-05-06 11:05 55.05596 -2.36123 29766 ft 468 kts 141°
2026-05-06 11:05 55.03158 -2.32364 30070 ft 467 kts 141°
2026-05-06 11:05 55.00721 -2.28614 30363 ft 467 kts 141°
2026-05-06 11:05 54.98291 -2.24871 30657 ft 466 kts 141°
2026-05-06 11:06 54.95863 -2.21132 30955 ft 465 kts 141°
2026-05-06 11:06 54.93441 -2.17413 31244 ft 464 kts 142°
2026-05-06 11:06 54.91015 -2.13698 31522 ft 464 kts 142°
2026-05-06 11:06 54.88597 -2.10001 31803 ft 463 kts 142°
2026-05-06 11:07 54.86173 -2.06305 32084 ft 463 kts 142°
2026-05-06 11:07 54.83759 -2.02632 32372 ft 462 kts 142°
2026-05-06 11:07 54.81346 -1.98963 32643 ft 461 kts 142°
2026-05-06 11:07 54.78937 -1.95304 32912 ft 460 kts 142°
2026-05-06 11:08 54.76527 -1.91644 33175 ft 459 kts 142°
2026-05-06 11:08 54.74121 -1.87999 33438 ft 459 kts 142°
2026-05-06 11:08 54.71723 -1.84375 33715 ft 458 kts 142°
2026-05-06 11:08 54.69320 -1.80753 33974 ft 457 kts 142°
2026-05-06 11:09 54.66926 -1.77154 34239 ft 456 kts 142°
2026-05-06 11:09 54.64501 -1.73513 34482 ft 456 kts 142°
2026-05-06 11:09 54.62104 -1.69915 34699 ft 456 kts 142°
2026-05-06 11:09 54.59705 -1.66321 34919 ft 456 kts 142°
2026-05-06 11:10 54.57307 -1.62736 35051 ft 457 kts 142°
2026-05-06 11:10 54.52476 -1.55525 35079 ft 460 kts 142°
2026-05-06 11:11 54.47632 -1.48314 35081 ft 460 kts 142°
2026-05-06 11:11 54.42782 -1.41120 35077 ft 460 kts 142°
2026-05-06 11:12 54.37932 -1.33951 35080 ft 460 kts 142°
2026-05-06 11:12 54.33073 -1.26795 35084 ft 460 kts 142°
2026-05-06 11:13 54.28196 -1.19630 35079 ft 461 kts 142°
2026-05-06 11:13 54.23328 -1.12494 35087 ft 461 kts 142°
2026-05-06 11:14 54.18452 -1.05382 35086 ft 460 kts 142°
2026-05-06 11:14 54.14366 -0.99442 35078 ft 460 kts 142°
2026-05-06 11:15 54.09527 -0.92425 35070 ft 460 kts 143°
2026-05-06 11:15 54.04639 -0.85375 35073 ft 460 kts 143°
2026-05-06 11:16 53.99525 -0.78904 35064 ft 458 kts 148°
2026-05-06 11:16 53.94285 -0.72749 35067 ft 458 kts 148°
2026-05-06 11:17 53.89036 -0.66630 35064 ft 457 kts 148°
2026-05-06 11:17 53.83793 -0.60531 35070 ft 457 kts 148°
2026-05-06 11:18 53.78580 -0.54463 35071 ft 457 kts 148°
2026-05-06 11:18 53.73332 -0.48381 35070 ft 457 kts 148°
2026-05-06 11:19 53.68081 -0.42311 35068 ft 457 kts 148°
2026-05-06 11:19 53.62831 -0.36263 35078 ft 457 kts 148°
2026-05-06 11:20 53.57762 -0.29808 35079 ft 459 kts 137°
2026-05-06 11:20 53.53713 -0.21449 35082 ft 462 kts 129°
2026-05-06 11:21 53.49853 -0.12818 35086 ft 462 kts 129°
2026-05-06 11:21 53.45968 -0.04229 35076 ft 462 kts 129°
2026-05-06 11:22 53.42064 0.04355 35073 ft 462 kts 130°
2026-05-06 11:22 53.38174 0.12923 35065 ft 462 kts 129°
2026-05-06 11:23 53.34290 0.21477 35066 ft 461 kts 129°
2026-05-06 11:23 53.30397 0.30019 35062 ft 461 kts 130°
2026-05-06 11:24 53.26492 0.38529 35056 ft 461 kts 130°
2026-05-06 11:24 53.22611 0.46954 35052 ft 461 kts 129°
2026-05-06 11:25 53.18704 0.55419 35048 ft 460 kts 129°
2026-05-06 11:25 53.14793 0.63870 35046 ft 460 kts 130°
2026-05-06 11:26 53.10866 0.72298 35041 ft 460 kts 130°
2026-05-06 11:26 53.06938 0.80706 35038 ft 460 kts 129°
2026-05-06 11:27 53.03017 0.89107 35029 ft 459 kts 129°
2026-05-06 11:27 52.99123 0.97516 35024 ft 459 kts 126°
2026-05-06 11:28 52.96301 1.07044 35020 ft 462 kts 111°
2026-05-06 11:28 52.94059 1.17025 35012 ft 462 kts 112°
2026-05-06 11:29 52.91773 1.27055 35011 ft 462 kts 112°
2026-05-06 11:29 52.89512 1.36951 35011 ft 462 kts 112°
2026-05-06 11:30 52.87235 1.46888 35014 ft 461 kts 112°
2026-05-06 11:30 52.84957 1.56789 35010 ft 461 kts 112°
2026-05-06 11:31 52.82673 1.66682 35005 ft 460 kts 112°
2026-05-06 11:31 52.80359 1.76625 35008 ft 460 kts 112°
2026-05-06 11:32 52.78051 1.86503 35007 ft 460 kts 112°
2026-05-06 11:32 52.75744 1.96373 35013 ft 459 kts 112°
2026-05-06 11:33 52.73447 2.06129 35006 ft 459 kts 112°
2026-05-06 11:33 52.71106 2.15985 35011 ft 458 kts 112°
2026-05-06 11:34 52.68798 2.25702 35005 ft 458 kts 112°
2026-05-06 11:34 52.66471 2.35465 35000 ft 457 kts 112°
2026-05-06 11:35 52.64136 2.45197 34988 ft 457 kts 113°
2026-05-06 11:35 52.61790 2.54917 34984 ft 457 kts 113°
2026-05-06 11:36 52.59443 2.64621 34978 ft 456 kts 113°
2026-05-06 11:36 52.57093 2.74302 34970 ft 456 kts 113°
2026-05-06 11:37 52.54722 2.83953 34962 ft 455 kts 114°
2026-05-06 11:37 52.52155 2.93459 34956 ft 454 kts 116°
2026-05-06 11:38 52.49426 3.02811 34952 ft 454 kts 117°
2026-05-06 11:38 52.46692 3.12153 34949 ft 454 kts 117°
2026-05-06 11:39 52.44013 3.21454 34953 ft 454 kts 117°
2026-05-06 11:39 52.41327 3.30814 34950 ft 454 kts 117°
2026-05-06 11:40 52.38635 3.40162 34948 ft 454 kts 117°
2026-05-06 11:40 52.35930 3.49496 34949 ft 453 kts 117°
2026-05-06 11:41 52.33212 3.58808 34948 ft 453 kts 117°
2026-05-06 11:41 52.30547 3.67904 34949 ft 453 kts 117°
2026-05-06 11:42 52.27843 3.77105 34949 ft 452 kts 117°
2026-05-06 11:42 52.25110 3.86353 34945 ft 452 kts 117°
2026-05-06 11:43 52.22368 3.95598 34937 ft 452 kts 117°
2026-05-06 11:43 52.19635 4.04808 34930 ft 451 kts 117°
2026-05-06 11:44 52.15537 4.18523 34919 ft 451 kts 117°
2026-05-06 11:44 52.12776 4.27701 34915 ft 451 kts 117°
2026-05-06 11:45 52.10012 4.36869 34908 ft 451 kts 118°
2026-05-06 11:45 52.07243 4.46031 34905 ft 451 kts 118°
2026-05-06 11:46 52.04456 4.55206 34905 ft 451 kts 118°
2026-05-06 11:46 52.01679 4.64299 34907 ft 451 kts 118°
2026-05-06 11:47 51.98886 4.73433 34906 ft 451 kts 118°
2026-05-06 11:47 51.96064 4.82637 34905 ft 451 kts 118°
2026-05-06 11:48 51.93724 4.90230 34905 ft 451 kts 118°
2026-05-06 11:48 51.90426 5.00870 34907 ft 451 kts 118°
2026-05-06 11:49 51.87962 5.08809 34906 ft 450 kts 118°
2026-05-06 11:49 51.85194 5.17695 34903 ft 450 kts 118°
2026-05-06 11:50 51.82446 5.26483 34901 ft 450 kts 118°
2026-05-06 11:50 51.79622 5.35484 34904 ft 450 kts 118°
2026-05-06 11:51 51.76790 5.44484 34903 ft 449 kts 118°
2026-05-06 11:51 51.73957 5.53457 34898 ft 448 kts 118°
2026-05-06 11:52 51.71114 5.62418 34898 ft 447 kts 119°
2026-05-06 11:52 51.68275 5.71307 34894 ft 447 kts 119°
2026-05-06 11:53 51.65396 5.80307 34893 ft 446 kts 119°
2026-05-06 11:53 51.62559 5.89163 34893 ft 446 kts 119°
2026-05-06 11:54 51.59705 5.98037 34891 ft 446 kts 119°
2026-05-06 11:54 51.56824 6.06928 34889 ft 446 kts 119°
2026-05-06 11:55 51.53961 6.15762 34889 ft 447 kts 119°
2026-05-06 11:55 51.51083 6.24605 34890 ft 447 kts 120°
2026-05-06 11:56 51.48160 6.33550 34894 ft 447 kts 120°
2026-05-06 11:56 51.45255 6.42408 34894 ft 448 kts 120°
2026-05-06 11:57 51.42337 6.51279 34892 ft 448 kts 120°
2026-05-06 11:57 51.39407 6.60143 34890 ft 449 kts 120°
2026-05-06 11:58 51.36507 6.68909 34888 ft 450 kts 120°
2026-05-06 11:58 51.33572 6.77730 34888 ft 450 kts 120°
2026-05-06 11:59 51.30626 6.86566 34888 ft 450 kts 120°
2026-05-06 11:59 51.27673 6.95391 34889 ft 451 kts 120°
2026-05-06 12:00 51.24706 7.04217 34889 ft 451 kts 120°
2026-05-06 12:00 51.21733 7.13028 34889 ft 451 kts 121°
2026-05-06 12:01 51.18715 7.21951 34889 ft 451 kts 121°
2026-05-06 12:01 51.15781 7.30590 34891 ft 451 kts 121°
2026-05-06 12:02 51.12767 7.39446 34893 ft 452 kts 121°
2026-05-06 12:02 51.09713 7.48368 34893 ft 452 kts 121°
2026-05-06 12:03 51.06725 7.57064 34894 ft 452 kts 121°
2026-05-06 12:03 51.03662 7.65938 34894 ft 453 kts 121°
2026-05-06 12:04 51.00638 7.74708 34893 ft 453 kts 121°
2026-05-06 12:04 50.97609 7.83454 34893 ft 454 kts 121°
2026-05-06 12:05 50.94532 7.92267 34893 ft 454 kts 121°
2026-05-06 12:05 50.90950 8.00361 34889 ft 449 kts 136°
2026-05-06 12:06 50.86395 8.07321 34895 ft 448 kts 139°
2026-05-06 12:06 50.81964 8.14095 34896 ft 449 kts 139°
2026-05-06 12:07 50.77469 8.20959 34895 ft 449 kts 139°
2026-05-06 12:07 50.72973 8.27779 34895 ft 449 kts 139°
2026-05-06 12:08 50.68439 8.34625 34895 ft 450 kts 139°
2026-05-06 12:08 50.63907 8.41464 34893 ft 450 kts 139°
2026-05-06 12:09 50.60118 8.47169 34891 ft 450 kts 139°
2026-05-06 12:09 50.54779 8.55189 34890 ft 450 kts 140°
2026-05-06 12:10 50.50287 8.61911 34889 ft 450 kts 140°
2026-05-06 12:10 50.45753 8.68674 34888 ft 450 kts 140°
2026-05-06 12:11 50.41959 8.74324 34887 ft 449 kts 140°
2026-05-06 12:11 50.36679 8.82179 34884 ft 449 kts 138°
2026-05-06 12:12 50.32923 8.90149 34883 ft 459 kts 121°
2026-05-06 12:12 50.30264 8.99259 34887 ft 465 kts 119°
2026-05-06 12:13 50.27603 9.08484 34883 ft 465 kts 120°
2026-05-06 12:13 50.25355 9.16216 34879 ft 466 kts 120°
2026-05-06 12:14 50.22655 9.25446 34871 ft 466 kts 120°
2026-05-06 12:14 50.19955 9.34611 34868 ft 467 kts 120°
2026-05-06 12:15 50.17221 9.43894 34865 ft 467 kts 120°
2026-05-06 12:15 50.14478 9.53195 34862 ft 467 kts 121°
2026-05-06 12:16 50.11766 9.62333 34863 ft 468 kts 121°
2026-05-06 12:16 50.09036 9.71498 34858 ft 468 kts 121°
2026-05-06 12:17 50.06290 9.80805 34857 ft 470 kts 119°
2026-05-06 12:17 50.03919 9.90252 34855 ft 473 kts 116°
2026-05-06 12:18 50.01727 9.99862 34854 ft 473 kts 116°
2026-05-06 12:18 49.99465 10.09454 34847 ft 473 kts 117°
2026-05-06 12:19 49.97090 10.19102 34848 ft 472 kts 117°
2026-05-06 12:19 49.94706 10.28664 34849 ft 473 kts 117°
2026-05-06 12:20 49.92365 10.38057 34848 ft 471 kts 119°
2026-05-06 12:20 49.89488 10.47107 34847 ft 467 kts 123°
2026-05-06 12:21 49.86539 10.56081 34847 ft 468 kts 123°
2026-05-06 12:21 49.83579 10.65072 34842 ft 468 kts 124°
2026-05-06 12:22 49.80615 10.74032 34842 ft 468 kts 124°
2026-05-06 12:22 49.77642 10.82983 34841 ft 468 kts 124°
2026-05-06 12:23 49.74656 10.91943 34841 ft 469 kts 124°
2026-05-06 12:23 49.71663 11.00903 34841 ft 469 kts 124°
2026-05-06 12:24 49.68660 11.09853 34836 ft 469 kts 124°
2026-05-06 12:24 49.65650 11.18798 34835 ft 469 kts 124°
2026-05-06 12:25 49.62974 11.26719 34836 ft 470 kts 124°
2026-05-06 12:25 49.59968 11.35578 34836 ft 470 kts 124°
2026-05-06 12:26 49.58098 11.41073 34834 ft 470 kts 124°
2026-05-06 12:26 49.55219 11.49432 34840 ft 470 kts 124°
2026-05-06 12:27 49.52179 11.58354 34840 ft 470 kts 124°
2026-05-06 12:27 49.49138 11.67266 34838 ft 470 kts 124°
2026-05-06 12:28 49.46075 11.76170 34836 ft 469 kts 124°
2026-05-06 12:28 49.43010 11.85019 34833 ft 469 kts 124°
2026-05-06 12:29 49.39944 11.93876 34810 ft 469 kts 125°
2026-05-06 12:29 49.36871 12.02711 34819 ft 469 kts 125°
2026-05-06 12:30 49.33776 12.11549 34820 ft 470 kts 125°
2026-05-06 12:30 49.30680 12.20395 34819 ft 471 kts 125°
2026-05-06 12:31 49.27575 12.29241 34820 ft 471 kts 125°
2026-05-06 12:31 49.24461 12.38053 34818 ft 471 kts 125°
2026-05-06 12:32 49.21309 12.46934 34807 ft 471 kts 125°
2026-05-06 12:32 49.18198 12.55703 34820 ft 471 kts 125°
2026-05-06 12:33 49.15049 12.64546 34810 ft 471 kts 126°
2026-05-06 12:33 49.11906 12.73339 34813 ft 472 kts 126°
2026-05-06 12:34 49.08730 12.82189 34807 ft 472 kts 126°
2026-05-06 12:34 49.05606 12.90860 34814 ft 472 kts 126°
2026-05-06 12:35 49.02425 12.99655 34815 ft 472 kts 126°
2026-05-06 12:35 48.99224 13.08487 34805 ft 472 kts 126°
2026-05-06 12:36 48.96019 13.17298 34807 ft 472 kts 126°
2026-05-06 12:36 48.92813 13.26076 34813 ft 472 kts 126°
2026-05-06 12:37 48.89616 13.34798 34801 ft 473 kts 126°
2026-05-06 12:37 48.86396 13.43559 34799 ft 473 kts 126°
2026-05-06 12:38 48.83728 13.50799 34808 ft 474 kts 126°
2026-05-06 12:38 48.80492 13.59558 34804 ft 474 kts 126°
2026-05-06 12:39 48.77252 13.68294 34800 ft 475 kts 126°
2026-05-06 12:39 48.73874 13.76806 34800 ft 472 kts 130°
2026-05-06 12:40 48.70171 13.85111 34794 ft 471 kts 132°
2026-05-06 12:40 48.66452 13.93267 34800 ft 472 kts 131°
2026-05-06 12:41 48.62765 14.01535 34807 ft 472 kts 131°
2026-05-06 12:41 48.59130 14.09801 34799 ft 474 kts 130°
2026-05-06 12:42 48.55467 14.18087 34794 ft 474 kts 131°
2026-05-06 12:42 48.51774 14.26338 34794 ft 474 kts 131°
2026-05-06 12:43 48.48051 14.34633 34794 ft 474 kts 131°
2026-05-06 12:43 48.44353 14.42877 34789 ft 474 kts 131°
2026-05-06 12:44 48.40632 14.51151 34794 ft 474 kts 131°
2026-05-06 12:44 48.36921 14.59359 34796 ft 474 kts 131°
2026-05-06 12:45 48.33173 14.67623 34793 ft 474 kts 131°
2026-05-06 12:46 48.27603 14.79897 34787 ft 474 kts 131°
2026-05-06 12:46 48.23859 14.88095 34790 ft 474 kts 131°
2026-05-06 12:47 48.20014 14.96464 34790 ft 475 kts 131°
2026-05-06 12:47 48.16275 15.04589 34791 ft 475 kts 131°
2026-05-06 12:48 48.12527 15.12762 34788 ft 476 kts 131°
2026-05-06 12:48 48.08766 15.20921 34786 ft 476 kts 131°
2026-05-06 12:49 48.04960 15.29126 34783 ft 476 kts 131°
2026-05-06 12:49 48.01141 15.37332 34783 ft 477 kts 131°
2026-05-06 12:50 47.97297 15.45562 34776 ft 478 kts 130°
2026-05-06 12:50 47.93476 15.53726 34772 ft 480 kts 130°
2026-05-06 12:51 47.89640 15.61898 34770 ft 480 kts 130°
2026-05-06 12:51 47.85797 15.70086 34768 ft 481 kts 131°
2026-05-06 12:52 47.81943 15.78275 34765 ft 480 kts 130°
2026-05-06 12:52 47.78072 15.86444 34784 ft 480 kts 131°
2026-05-06 12:53 47.74838 15.93235 34774 ft 480 kts 131°
2026-05-06 12:53 47.70993 16.01325 34774 ft 480 kts 131°
2026-05-06 12:54 47.67137 16.09422 34778 ft 480 kts 131°
2026-05-06 12:54 47.63158 16.17752 34774 ft 481 kts 131°
2026-05-06 12:55 47.59299 16.25798 34768 ft 480 kts 131°
2026-05-06 12:55 47.55402 16.33878 34773 ft 479 kts 131°
2026-05-06 12:56 47.51483 16.41981 34768 ft 479 kts 131°
2026-05-06 12:56 47.47604 16.49992 34769 ft 478 kts 131°
2026-05-06 12:57 47.43730 16.57961 34769 ft 478 kts 130°
2026-05-06 12:57 47.39835 16.65942 34767 ft 478 kts 131°
2026-05-06 12:58 47.35898 16.73903 34766 ft 477 kts 131°
2026-05-06 12:58 47.31968 16.81792 34767 ft 477 kts 131°
2026-05-06 12:59 47.28034 16.89681 34765 ft 477 kts 131°
2026-05-06 12:59 47.24083 16.97592 34765 ft 476 kts 131°
2026-05-06 13:00 47.20129 17.05503 34769 ft 477 kts 131°
2026-05-06 13:00 47.16192 17.13354 34769 ft 476 kts 131°
2026-05-06 13:01 47.12255 17.21178 34771 ft 476 kts 131°
2026-05-06 13:01 47.08259 17.29094 34772 ft 476 kts 131°
2026-05-06 13:02 47.04324 17.36884 34770 ft 475 kts 131°
2026-05-06 13:02 47.00339 17.44715 34768 ft 476 kts 131°
2026-05-06 13:03 46.95943 17.51835 34764 ft 469 kts 141°
2026-05-06 13:03 46.91191 17.58501 34767 ft 470 kts 141°
2026-05-06 13:04 46.86465 17.65148 34767 ft 471 kts 141°
2026-05-06 13:04 46.81738 17.71789 34765 ft 471 kts 141°
2026-05-06 13:05 46.76968 17.78458 34766 ft 472 kts 141°
2026-05-06 13:05 46.72217 17.85083 34766 ft 473 kts 141°
2026-05-06 13:06 46.68229 17.90626 34766 ft 473 kts 141°
2026-05-06 13:06 46.63432 17.97286 34765 ft 473 kts 141°
2026-05-06 13:07 46.58654 18.03892 34763 ft 474 kts 141°
2026-05-06 13:07 46.53828 18.10554 34763 ft 475 kts 141°
2026-05-06 13:08 46.48969 18.17246 34763 ft 475 kts 141°
2026-05-06 13:08 46.44163 18.23849 34762 ft 475 kts 141°
2026-05-06 13:09 46.39317 18.30478 34766 ft 476 kts 141°
2026-05-06 13:09 46.34500 18.37057 34765 ft 476 kts 141°
2026-05-06 13:10 46.29646 18.43682 34765 ft 476 kts 141°
2026-05-06 13:10 46.24792 18.50285 34764 ft 475 kts 141°
2026-05-06 13:11 46.19960 18.56830 34764 ft 475 kts 141°